DW5164 Weather Reports


time (UTC)temp
C
wind
direction
speed
KPH
gust
KPH
rain 1hr
cm
rain 24hr
cm
rain mn
cm
humidity
%
barometer
mb
20260510093057 18 78 11.3 19.3 0.00 0.08 0.08 80 1013.0
20260510092552 18 76 8.0 19.3 0.00 0.08 0.08 81 1013.0
20260510092052 18 86 9.7 19.3 0.00 0.08 0.08 81 1013.0
20260510091552 18 74 11.3 19.3 0.00 0.08 0.08 82 1013.1
20260510091107 18 85 11.3 16.1 0.00 0.08 0.08 83 1013.2
20260510090552 18 92 8.0 16.1 0.00 0.08 0.08 83 1013.2
20260510090053 18 85 11.3 16.1 0.00 0.08 0.08 84 1013.2
20260510085052 17 72 9.7 12.9 0.00 0.08 0.08 86 1013.2
20260510084553 17 86 8.0 14.5 0.00 0.08 0.08 87 1013.2
20260510084052 17 70 8.0 12.9 0.00 0.08 0.08 87 1013.2
20260510083552 17 81 9.7 12.9 0.00 0.08 0.08 87 1013.2
20260510083052 17 70 9.7 16.1 0.00 0.08 0.08 87 1013.1
20260510082552 17 78 9.7 14.5 0.00 0.08 0.08 87 1013.1
20260510081552 17 80 8.0 12.9 0.00 0.08 0.08 88 1013.1
20260510081053 17 93 9.7 12.9 0.00 0.08 0.08 88 1013.1
20260510080055 17 67 4.8 9.7 0.00 0.08 0.08 89 1013.1
20260510075552 17 67 6.4 9.7 0.00 0.08 0.08 88 1013.0
20260510075052 17 82 6.4 9.7 0.00 0.08 0.08 89 1013.0
20260510074553 17 84 4.8 12.9 0.00 0.08 0.08 89 1013.0
20260510074055 17 101 6.4 11.3 0.03 0.08 0.08 90 1012.9
20260510073052 17 79 4.8 11.3 0.03 0.08 0.08 92 1012.8
20260510072552 16 78 8.0 11.3 0.08 0.08 0.08 92 1012.7
20260510072051 16 67 8.0 14.5 0.08 0.08 0.08 92 1012.6
20260510071107 16 77 16.1 20.9 0.08 0.08 0.08 93 1012.6
20260510065552 16 75 8.0 14.5 0.08 0.08 0.08 93 1012.5
20260510064552 16 73 14.5 20.9 0.08 0.08 0.08 92 1012.5
20260510064052 16 91 11.3 19.3 0.05 0.05 0.05 91 1012.5
20260510063552 16 77 16.1 20.9 0.05 0.05 0.05 90 1012.5
20260510063053 16 73 12.9 20.9 0.05 0.05 0.05 89 1012.5
20260510062552 17 80 11.3 22.5 0.03 0.03 0.03 87 1012.5
20260510062052 17 89 11.3 12.9 0.00 0.00 0.00 87 1012.5
20260510061552 17 83 9.7 20.9 0.00 0.00 0.00 87 1012.5
20260510061051 17 90 12.9 20.9 0.00 0.00 0.00 86 1012.7
20260510060052 16 91 9.7 14.5 0.00 0.00 0.00 85 1012.6
20260510055552 16 76 9.7 16.1 0.00 0.00 0.00 85 1012.6
20260510054552 16 85 4.8 9.7 0.00 0.00 0.00 88 1012.7
20260510054051 16 94 4.8 11.3 0.00 0.00 0.00 88 1012.7
20260510053553 16 122 4.8 8.0 0.00 0.00 0.00 88 1012.6
20260510053051 15 100 3.2 8.0 0.00 0.00 0.00 88 1012.6
20260510052551 15 108 3.2 8.0 0.00 0.00 0.00 88 1012.6
20260510052051 15 107 6.4 11.3 0.00 0.00 0.00 88 1012.6
20260510051552 15 111 4.8 11.3 0.00 0.00 0.00 88 1012.7
20260510051052 15 101 3.2 8.0 0.00 0.00 0.00 87 1012.7
20260510050553 16 104 4.8 8.0 0.00 0.00 0.00 86 1012.7
20260510050051 16 132 3.2 3.2 0.00 0.00 0.00 85 1012.7
20260510045551 16 177 3.2 4.8 0.00 0.00 0.00 85 1012.6
20260510044551 16 202 3.2 4.8 0.00 0.00 0.00 85 1012.6
20260510044051 15 56 1.6 3.2 0.00 0.00 0.00 85 1012.6
20260510043551 15 47 0.0 1.6 0.00 0.00 0.00 86 1012.6
20260510043051 15 47 0.0 0.0 0.00 0.00 0.00 86 1012.5
20260510042552 15 47 0.0 0.0 0.00 0.00 0.00 86 1012.5
20260510042051 15 47 0.0 0.0 0.00 0.00 0.00 86 1012.4
20260510041551 15 47 0.0 1.6 0.00 0.00 0.00 86 1012.4
20260510041051 15 50 1.6 3.2 0.00 0.00 0.00 86 1012.5
20260510040051 15 87 3.2 8.0 0.00 0.00 0.00 86 1012.4
20260510035552 15 101 4.8 8.0 0.00 0.00 0.00 86 1012.4
20260510035051 15 82 4.8 11.3 0.00 0.00 0.00 85 1012.2
20260510034551 15 63 4.8 8.0 0.00 0.00 0.00 85 1012.3
20260510034051 15 66 6.4 9.7 0.00 0.00 0.00 85 1012.3
20260510033051 15 58 4.8 8.0 0.00 0.00 0.00 85 1012.4
20260510032551 15 60 4.8 8.0 0.00 0.00 0.00 85 1012.4
20260510032051 15 75 4.8 11.3 0.00 0.00 0.00 85 1012.5
20260510031551 15 64 4.8 8.0 0.00 0.00 0.00 84 1012.5
20260510031051 15 69 4.8 9.7 0.00 0.00 0.00 84 1012.6
20260510030551 15 69 3.2 8.0 0.00 0.00 0.00 84 1012.6
20260510030051 15 57 4.8 4.8 0.00 0.00 0.00 84 1012.7
20260510025551 15 48 3.2 4.8 0.00 0.00 0.00 84 1012.8
20260510025051 15 54 3.2 4.8 0.00 0.00 0.00 84 1012.9
20260510024551 15 63 3.2 4.8 0.00 0.00 0.00 84 1012.9
20260510024051 15 47 3.2 4.8 0.00 0.00 0.00 83 1012.9
20260510023551 16 40 3.2 4.8 0.00 0.00 0.00 83 1013.0
20260510023052 16 43 4.8 4.8 0.00 0.00 0.00 83 1013.1
20260510022551 16 46 4.8 4.8 0.00 0.00 0.00 82 1013.1
20260510022051 16 47 3.2 4.8 0.00 0.00 0.00 82 1013.2
20260510021051 16 24 1.6 4.8 0.00 0.00 0.00 81 1013.2
20260510020551 16 52 3.2 4.8 0.00 0.00 0.00 81 1013.3
20260510015553 16 62 4.8 8.0 0.00 0.00 0.00 80 1013.5
20260510015051 16 60 4.8 4.8 0.00 0.00 0.00 80 1013.5
20260510014556 16 45 4.8 8.0 0.00 0.00 0.00 81 1013.6
20260510014051 16 47 3.2 8.0 0.00 0.00 0.00 80 1013.6
20260510013553 16 59 3.2 8.0 0.00 0.00 0.00 80 1013.7
20260510013052 16 70 3.2 4.8 0.00 0.00 0.00 80 1013.7
20260510012551 16 73 3.2 8.0 0.00 0.00 0.00 79 1013.8
20260510012051 16 65 4.8 8.0 0.00 0.00 0.00 78 1013.8
20260510011551 16 70 4.8 9.7 0.00 0.00 0.00 78 1013.8
20260510011051 16 66 3.2 8.0 0.00 0.00 0.00 77 1013.9
20260510010553 16 72 3.2 4.8 0.00 0.00 0.00 77 1013.9
20260510010051 16 80 4.8 9.7 0.00 0.00 0.00 76 1013.8
20260510005550 16 72 4.8 11.3 0.00 0.00 0.00 76 1013.8
20260510004551 16 68 8.0 12.9 0.00 0.00 0.00 75 1013.8
20260510004051 16 65 6.4 12.9 0.00 0.00 0.00 74 1013.8
20260510003554 16 68 6.4 11.3 0.00 0.00 0.00 74 1013.8
20260510003051 16 69 4.8 11.3 0.00 0.00 0.00 75 1013.8
20260510002552 16 65 4.8 8.0 0.00 0.00 0.00 75 1013.8
20260510002051 16 59 4.8 8.0 0.00 0.00 0.00 76 1013.8
20260510001051 16 69 4.8 8.0 0.00 0.00 0.00 77 1014.0
20260510000551 16 62 4.8 8.0 0.00 0.00 0.00 77 1014.0
20260509235551 16 67 4.8 8.0 0.00 0.00 0.00 78 1014.1
20260509235051 16 53 6.4 8.0 0.00 0.00 0.00 78 1014.1
20260509234050 16 53 4.8 9.7 0.00 0.00 0.00 78 1014.2
20260509233051 16 70 8.0 8.0 0.00 0.00 0.00 78 1014.3
20260509232558 16 58 4.8 8.0 0.00 0.00 0.00 79 1014.3
20260509232050 16 54 6.4 9.7 0.00 0.00 0.00 79 1014.3
20260509231550 16 47 8.0 11.3 0.00 0.00 0.00 79 1014.4
20260509230550 16 49 6.4 8.0 0.00 0.00 0.00 79 1014.4
20260509230105 16 52 3.2 4.8 0.00 0.00 0.00 79 1014.4
20260509225551 16 64 4.8 11.3 0.00 0.00 0.00 78 1014.3
20260509225051 17 48 8.0 11.3 0.00 0.00 0.00 78 1014.3
20260509224551 17 71 3.2 8.0 0.00 0.00 0.00 78 1014.3
20260509224050 17 51 9.7 12.9 0.00 0.00 0.00 78 1014.3
20260509223550 17 43 6.4 9.7 0.00 0.00 0.00 78 1014.3
20260509223050 17 79 3.2 4.8 0.00 0.00 0.00 77 1014.1
20260509222552 17 106 1.6 4.8 0.00 0.00 0.00 78 1014.1
20260509222050 17 85 1.6 3.2 0.00 0.00 0.00 77 1014.1
20260509221551 17 85 1.6 3.2 0.00 0.00 0.00 77 1014.1
20260509221050 17 85 1.6 3.2 0.00 0.00 0.00 77 1014.0
20260509220551 17 100 3.2 3.2 0.00 0.00 0.00 77 1014.0
20260509220050 17 105 1.6 3.2 0.00 0.00 0.00 77 1014.0
20260509215550 17 105 3.2 4.8 0.00 0.00 0.00 76 1014.0
20260509215050 18 105 3.2 4.8 0.00 0.00 0.00 75 1014.0
20260509214550 18 105 1.6 3.2 0.00 0.00 0.00 73 1014.0
20260509214050 18 106 3.2 4.8 0.00 0.00 0.00 72 1014.0
20260509213051 18 122 3.2 9.7 0.00 0.00 0.00 71 1014.0
20260509212550 18 134 3.2 8.0 0.00 0.00 0.00 71 1014.0
20260509212051 18 165 4.8 4.8 0.00 0.00 0.00 72 1014.0
20260509211550 18 148 4.8 11.3 0.00 0.00 0.00 73 1014.0
20260509210550 18 117 3.2 4.8 0.00 0.00 0.00 74 1014.0
20260509205550 18 127 3.2 4.8 0.00 0.00 0.00 72 1013.9
20260509205050 18 92 3.2 4.8 0.00 0.00 0.00 72 1013.9
20260509204552 19 104 3.2 4.8 0.00 0.00 0.00 72 1013.9
20260509204051 19 106 3.2 4.8 0.00 0.00 0.00 70 1013.9
20260509203550 19 106 1.6 4.8 0.00 0.00 0.00 69 1013.9
20260509203052 19 106 3.2 4.8 0.00 0.00 0.00 70 1013.9
20260509202550 19 82 3.2 4.8 0.00 0.00 0.00 71 1013.8
20260509202050 19 101 1.6 3.2 0.00 0.00 0.00 71 1013.8
20260509201550 19 78 3.2 4.8 0.00 0.00 0.00 71 1013.8
20260509201051 19 44 3.2 3.2 0.00 0.00 0.00 72 1013.8
20260509200550 19 44 1.6 4.8 0.00 0.00 0.00 73 1013.8
20260509200051 20 44 0.0 1.6 0.00 0.00 0.00 72 1013.8
20260509195049 19 38 3.2 4.8 0.00 0.00 0.00 73 1013.7
20260509194550 19 55 1.6 3.2 0.00 0.00 0.00 72 1013.6
20260509194049 19 55 1.6 1.6 0.00 0.00 0.00 72 1013.5
20260509193605 19 55 3.2 3.2 0.00 0.00 0.00 71 1013.5
20260509193050 20 55 3.2 3.2 0.00 0.00 0.00 71 1013.4
20260509192550 20 55 3.2 3.2 0.00 0.00 0.00 70 1013.3
20260509192049 20 55 0.0 0.0 0.00 0.00 0.00 69 1013.3
20260509191551 20 55 0.0 0.0 0.00 0.00 0.00 68 1013.1
20260509191050 20 55 0.0 0.0 0.00 0.00 0.00 67 1013.1
20260509190049 20 54 1.6 3.2 0.00 0.00 0.00 67 1013.1
20260509185552 20 54 0.0 0.0 0.00 0.00 0.00 67 1013.1
20260509185050 21 54 0.0 0.0 0.00 0.00 0.00 66 1013.0
20260509184550 21 54 0.0 0.0 0.00 0.00 0.00 64 1013.0
20260509184050 21 54 1.6 3.2 0.00 0.00 0.00 64 1013.0
20260509183049 21 54 1.6 3.2 0.00 0.00 0.00 63 1012.9
20260509182550 21 54 1.6 3.2 0.00 0.00 0.00 63 1012.9
20260509182050 22 54 1.6 1.6 0.00 0.00 0.00 62 1012.9
20260509181549 22 43 1.6 1.6 0.00 0.00 0.00 61 1012.9
20260509180550 22 43 1.6 4.8 0.00 0.00 0.00 63 1012.8
20260509180050 22 102 3.2 4.8 0.00 0.00 0.00 62 1012.9
20260509175550 22 102 1.6 3.2 0.00 0.00 0.00 59 1012.9
20260509174550 23 103 1.6 3.2 0.00 0.00 0.00 57 1012.9
20260509174052 23 133 1.6 3.2 0.00 0.00 0.00 56 1012.9
20260509173549 23 133 1.6 3.2 0.00 0.00 0.00 55 1012.9
20260509173050 23 133 1.6 3.2 0.00 0.00 0.00 56 1013.0
20260509172550 23 133 0.0 1.6 0.00 0.00 0.00 57 1013.0
20260509172052 24 133 1.6 3.2 0.00 0.00 0.00 54 1013.0
20260509171549 24 139 3.2 4.8 0.00 0.00 0.00 53 1013.0
20260509171050 24 105 1.6 4.8 0.00 0.00 0.00 51 1013.1
20260509170549 24 116 4.8 8.0 0.00 0.00 0.00 52 1013.1
20260509170052 25 127 1.6 4.8 0.00 0.00 0.00 51 1013.2
20260509165549 25 179 1.6 4.8 0.00 0.00 0.00 50 1013.2
20260509165050 25 199 4.8 12.9 0.00 0.00 0.00 51 1013.2
20260509164549 25 78 1.6 3.2 0.00 0.00 0.00 51 1013.3
20260509163049 25 97 3.2 8.0 0.00 0.00 0.00 50 1013.4
20260509162549 25 215 6.4 8.0 0.00 0.00 0.00 49 1013.4
20260509162050 25 183 3.2 9.7 0.00 0.00 0.00 49 1013.4
20260509161549 25 171 3.2 9.7 0.00 0.00 0.00 51 1013.4
20260509161049 25 118 3.2 8.0 0.00 0.00 0.00 50 1013.4
20260509160549 25 159 3.2 11.3 0.00 0.00 0.00 51 1013.5
20260509155549 25 138 6.4 8.0 0.00 0.00 0.00 50 1013.5
20260509155049 25 173 3.2 9.7 0.00 0.00 0.00 50 1013.4
20260509153549 25 152 1.6 8.0 0.00 0.00 0.00 49 1013.4
20260509153049 25 115 3.2 8.0 0.00 0.00 0.00 50 1013.4
20260509152549 26 122 8.0 8.0 0.00 0.00 0.00 50 1013.4
20260509152049 26 122 3.2 8.0 0.00 0.00 0.00 50 1013.5
20260509151549 25 261 8.0 12.9 0.00 0.00 0.00 49 1013.5
20260509151049 26 214 3.2 11.3 0.00 0.00 0.00 50 1013.4
20260509145049 26 206 3.2 4.8 0.00 0.00 0.00 45 1013.4
20260509144551 25 175 1.6 8.0 0.00 0.00 0.00 45 1013.5
20260509144049 26 216 4.8 4.8 0.00 0.00 0.00 47 1013.5
20260509143551 26 220 8.0 11.3 0.00 0.00 0.00 47 1013.5
20260509143049 26 233 6.4 11.3 0.00 0.00 0.00 47 1013.6
20260509142551 25 112 4.8 8.0 0.00 0.00 0.00 48 1013.7
20260509142049 26 119 3.2 9.7 0.00 0.00 0.00 50 1013.7
20260509141548 26 185 1.6 4.8 0.00 0.00 0.00 50 1013.7
20260509135050 25 155 1.6 8.0 0.00 0.00 0.00 50 1014.1
20260509134550 26 117 1.6 8.0 0.00 0.00 0.00 51 1014.3
20260509134049 25 196 3.2 4.8 0.00 0.00 0.00 49 1014.3
20260509133549 25 281 8.0 11.3 0.00 0.00 0.00 52 1014.4
20260509133048 25 205 9.7 16.1 0.00 0.00 0.00 51 1014.5
20260509131549 26 228 4.8 11.3 0.00 0.00 0.00 48 1014.5
20260509131049 25 242 8.0 9.7 0.00 0.00 0.00 51 1014.6
20260509130550 25 225 1.6 11.3 0.00 0.00 0.00 52 1014.6
20260509130049 25 212 4.8 9.7 0.00 0.00 0.00 51 1014.7
20260509125049 25 124 4.8 16.1 0.00 0.00 0.00 53 1014.8
20260509124549 25 229 3.2 11.3 0.00 0.00 0.00 55 1014.9
20260509124049 25 268 4.8 8.0 0.00 0.00 0.00 55 1014.9
20260509123052 24 197 3.2 8.0 0.00 0.00 0.00 57 1015.0
20260509122549 25 217 3.2 8.0 0.00 0.00 0.00 54 1015.0
20260509122049 25 194 4.8 8.0 0.00 0.00 0.00 54 1015.0
20260509121548 25 192 8.0 11.3 0.00 0.00 0.00 56 1014.9
20260509121049 25 211 4.8 11.3 0.00 0.00 0.00 56 1015.0
20260509120549 25 207 3.2 9.7 0.00 0.00 0.00 55 1015.0
20260509120048 25 205 4.8 12.9 0.00 0.00 0.00 56 1014.9
20260509115049 25 192 4.8 8.0 0.00 0.00 0.00 56 1015.0
20260509114549 25 153 8.0 14.5 0.00 0.00 0.00 55 1015.0
20260509114049 25 200 6.4 9.7 0.00 0.00 0.00 56 1015.1
20260509113050 24 191 4.8 8.0 0.00 0.00 0.00 58 1015.2
20260509112100 24 250 4.8 8.0 0.00 0.00 0.00 56 1015.4
20260509111548 25 287 3.2 4.8 0.00 0.00 0.00 55 1015.5
20260509111048 24 0 4.8 9.7 0.00 0.00 0.00 58 1015.5
20260509110604 23 257 6.4 9.7 0.00 0.00 0.00 57 1015.5
20260509110048 24 239 4.8 9.7 0.00 0.00 0.00 58 1015.5
20260509105549 23 195 4.8 8.0 0.00 0.00 0.00 58 1015.6
20260509105048 23 330 6.4 9.7 0.00 0.00 0.00 59 1015.7
20260509104548 23 299 4.8 8.0 0.00 0.00 0.00 60 1015.8
20260509104055 23 308 3.2 9.7 0.00 0.00 0.00 58 1015.8
20260509103548 23 300 8.0 11.3 0.00 0.00 0.00 59 1015.9
20260509103048 23 239 3.2 11.3 0.00 0.00 0.00 63 1016.0
20260509102549 23 265 6.4 12.9 0.00 0.00 0.00 60 1016.1
20260509102049 23 146 6.4 11.3 0.00 0.00 0.00 61 1016.2
20260509101049 23 232 11.3 11.3 0.00 0.00 0.00 61 1016.2
20260509100548 23 258 6.4 8.0 0.00 0.00 0.00 62 1016.3
20260509095548 22 225 3.2 4.8 0.00 0.00 0.00 63 1016.3
20260509095048 23 258 3.2 8.0 0.00 0.00 0.00 63 1016.3
20260509094548 22 253 1.6 4.8 0.00 0.00 0.00 66 1016.3
20260509094048 22 232 3.2 4.8 0.00 0.00 0.00 67 1016.4
20260509093549 23 259 3.2 8.0 0.00 0.00 0.00 65 1016.4